TimeEDT,TemperatureF,Dew PointF,Humidity,Sea Level PressureIn,VisibilityMPH,Wind Direction,Wind SpeedMPH,Gust SpeedMPH,PrecipitationIn,Events,Conditions,WindDirDegrees,DateUTC
12:53 AM,78.1,69.1,74,30.09,10.0,North,12.7,19.6,N/A,,Clear,350,2013-05-14 04:53:00
1:53 AM,78.1,68.0,71,30.08,10.0,North,13.8,21.9,N/A,,Clear,350,2013-05-14 05:53:00
2:53 AM,78.1,68.0,71,30.06,10.0,North,15.0,23.0,N/A,,Clear,360,2013-05-14 06:53:00
3:53 AM,79.0,64.0,60,30.06,10.0,North,16.1,23.0,N/A,,Clear,360,2013-05-14 07:53:00
4:53 AM,77.0,64.0,64,30.07,10.0,North,11.5,20.7,N/A,,Clear,10,2013-05-14 08:53:00
5:53 AM,77.0,66.9,71,30.08,10.0,NNE,10.4,-,N/A,,Clear,20,2013-05-14 09:53:00
6:53 AM,78.1,69.1,74,30.09,10.0,NNE,6.9,-,N/A,,Clear,20,2013-05-14 10:53:00
7:51 AM,78.8,71.6,78,30.10,10.0,NNE,11.5,-,N/A,,Mostly Cloudy,20,2013-05-14 11:51:00
7:53 AM,79.0,71.1,77,30.11,10.0,NNE,11.5,-,N/A,,Mostly Cloudy,30,2013-05-14 11:53:00
8:02 AM,78.8,71.6,78,30.11,10.0,NNE,10.4,-,N/A,,Scattered Clouds,30,2013-05-14 12:02:00
8:53 AM,80.1,70.0,71,30.12,10.0,NE,9.2,-,N/A,,Scattered Clouds,40,2013-05-14 12:53:00
9:53 AM,80.1,70.0,71,30.12,10.0,NE,13.8,21.9,N/A,,Clear,50,2013-05-14 13:53:00
10:53 AM,81.0,70.0,69,30.14,10.0,NE,12.7,20.7,N/A,,Mostly Cloudy,50,2013-05-14 14:53:00
11:53 AM,82.0,69.1,65,30.15,10.0,NE,11.5,20.7,N/A,,Mostly Cloudy,50,2013-05-14 15:53:00
12:53 PM,82.9,69.1,63,30.14,10.0,ENE,12.7,19.6,N/A,,Mostly Cloudy,60,2013-05-14 16:53:00
1:53 PM,82.0,68.0,62,30.13,10.0,East,13.8,19.6,N/A,,Overcast,90,2013-05-14 17:53:00
2:53 PM,82.0,66.9,60,30.12,10.0,ENE,10.4,-,N/A,,Overcast,70,2013-05-14 18:53:00
3:53 PM,82.9,66.9,58,30.10,10.0,East,15.0,20.7,N/A,,Overcast,100,2013-05-14 19:53:00
4:53 PM,81.0,68.0,65,30.09,10.0,East,18.4,24.2,N/A,,Overcast,100,2013-05-14 20:53:00
5:53 PM,82.0,68.0,62,30.09,10.0,East,15.0,24.2,N/A,,Clear,90,2013-05-14 21:53:00
6:53 PM,80.1,66.9,64,30.09,10.0,East,18.4,-,N/A,,Clear,100,2013-05-14 22:53:00
7:53 PM,79.0,66.0,64,30.11,10.0,East,13.8,-,N/A,,Partly Cloudy,80,2013-05-14 23:53:00
8:53 PM,78.1,64.9,64,30.12,10.0,East,9.2,-,N/A,,Partly Cloudy,80,2013-05-15 00:53:00
9:53 PM,78.1,64.0,62,30.13,10.0,East,10.4,-,N/A,,Clear,80,2013-05-15 01:53:00
10:53 PM,78.1,63.0,60,30.15,10.0,East,8.1,-,N/A,,Mostly Cloudy,80,2013-05-15 02:53:00
11:53 PM,77.0,62.1,60,30.14,10.0,East,10.4,-,N/A,,Clear,80,2013-05-15 03:53:00